[[{"header":{"parameterUnit":"m.s-1","parameterCategory":1,"la1":30.2991,"la2":30.254,"lo1":-89.0895,"lo2":-89.0444,"dy":0.0017,"dx":0.0017,"nx":28,"ny":28,"refTime":"2024-10-01T21:00:00:Z","depth":0,"parameterNumber":2,"parameterNumberName":"U-component_of_WINDS"},"data":[0,0,0,0,0,0,0,0,0,0,0,0,0,0,0,0,0,0,0,0,0,0,0,0,0,0,0,0,0,0,0,0,0,0,0,0,0,0,0,0,0,0,0,0,0,0,0,0,0,0,0,0,0,0,0,0,0,0,1.3332,1.3333,0,1.3401,1.3402,1.3403,1.3413,1.3412,1.3411,1.3411,1.3482,1.3485,1.3487,0,0,0,0,0,0,0,0,0,0,0,0,0,1.3209,1.3211,1.3332,1.3333,1.3334,1.3401,1.3402,1.3403,1.3413,1.3412,1.3411,1.341,1.3481,1.3484,1.3487,0,0,0,0,0,0,0,0,0,0,0,0,0,1.3269,1.3212,1.3332,1.3347,1.3349,1.3401,1.3402,1.3403,1.3413,1.3412,1.3411,1.341,1.348,1.3484,1.3488,1.353,0,0,1.3499,1.3501,0,0,0,0,0,0,0,0,1.3265,1.3273,1.3344,1.3346,1.3348,1.3397,1.3385,1.3446,1.3413,1.3389,1.3411,1.341,1.3455,1.3461,1.3476,1.3533,1.3536,1.3499,1.3502,1.3503,1.3504,0,0,0,0,0,0,0,1.3261,1.327,1.336,1.3345,1.3348,1.335,1.3358,1.3396,1.3426,1.3391,1.3392,1.34,1.3456,1.3472,1.3477,1.3537,1.3499,1.3503,1.3505,1.3506,1.3632,1.3633,0,0,0,0,0,0,1.3254,1.3267,1.3357,1.3362,1.3304,1.3353,1.3361,1.3383,1.3426,1.3432,1.34,1.34,1.3466,1.3473,1.348,1.3531,1.3503,1.3507,1.3509,1.3631,1.3632,1.3633,0,0,0,0,0,0,1.3252,1.3262,1.3355,1.3315,1.3327,1.3356,1.338,1.3384,1.3401,1.3433,1.3438,1.3411,1.3466,1.3475,1.3517,1.3534,1.3508,1.3512,1.3629,1.3631,1.3632,1.3634,0,0,0,0,0,0,1.3248,1.3261,1.3278,1.3315,1.3329,1.3391,1.3381,1.3387,1.3407,1.3407,1.3445,1.345,1.3465,1.3511,1.3521,1.3538,1.3515,1.3628,1.363,1.3632,1.3633,1.3636,1.3638,0,0,0,0,0,1.3244,1.3276,1.3279,1.329,1.335,1.3392,1.34,1.3416,1.3408,1.3425,1.3446,1.3449,1.353,1.3516,1.3526,1.3545,1.3627,1.3629,1.3632,1.3632,1.3635,1.3638,0,0,0,0,0,0,1.3241,1.3281,1.3285,1.333,1.3357,1.3393,1.3415,1.342,1.345,1.3449,1.3468,1.3477,1.3518,1.3536,1.3519,1.3588,1.3578,1.3583,1.3574,1.3578,1.3581,1.3575,1.3518,0,0,0,0,0,1.3246,1.3276,1.331,1.3347,1.336,1.3385,1.3404,1.3414,1.3443,1.3455,1.3479,1.3507,1.3539,1.356,1.3591,1.3636,1.3644,1.3654,1.3657,1.3659,1.3662,1.3686,1.3691,1.3641,1.3641,1.3641,0,0,1.3256,1.3281,1.33,1.3347,1.3369,1.34,1.3395,1.3428,1.3451,1.346,1.3501,1.352,1.3552,1.3596,1.3616,1.3612,1.3678,1.3662,1.3663,1.3666,1.3689,1.3694,1.3698,1.3643,1.3642,1.3642,0,0,1.3289,1.3312,1.3345,1.3367,1.34,1.3417,1.3424,1.346,1.3472,1.3513,1.352,1.3548,1.3603,1.3625,1.3644,1.3685,1.3689,1.3695,1.3709,1.3731,1.3735,1.3739,1.3752,1.3757,1.3698,1.3698,1.3698,0,1.3298,1.3344,1.3361,1.3393,1.3413,1.3423,1.3455,1.3476,1.3518,1.3532,1.3527,1.3595,1.3618,1.3666,1.3675,1.3691,1.37,1.369,1.3733,1.3737,1.3741,1.3754,1.3759,1.3699,1.3699,1.3699,1.3699,0,1.3352,1.3384,1.3406,1.3446,1.3469,1.3501,1.3522,1.3543,1.3551,1.3568,1.3609,1.3637,1.3673,1.3686,1.3694,1.3735,1.3731,1.3729,1.372,1.3746,1.3758,1.3763,1.3699,1.3699,1.3699,1.3699,0,0,1.3386,1.3434,1.3441,1.3459,1.3496,1.3521,1.3554,1.3589,1.3606,1.3634,1.3662,1.3707,1.3705,1.3727,1.3738,1.3758,1.3787,1.3754,1.3755,1.3758,1.3832,1.3832,1.3837,1.379,1.3791,1.3792,1.3829,0,1.3423,1.3481,1.3497,1.3546,1.3575,1.3584,1.3612,1.3637,1.3654,1.3681,1.3699,1.373,1.3726,1.3739,1.3759,1.3779,1.3802,1.3777,1.3815,1.3816,1.3806,1.3844,1.3845,1.3878,1.3834,1.3835,1.3835,0,1.3475,1.3503,1.3555,1.3587,1.36,1.3625,1.3657,1.3683,1.3712,1.3723,1.3745,1.3754,1.3788,1.3777,1.3823,1.3806,1.3822,1.3834,1.3836,1.384,1.3827,1.3848,1.3889,1.3894,1.3843,1.3843,1.3842,0,1.3493,1.3544,1.3582,1.3596,1.3635,1.3652,1.3669,1.3697,1.3717,1.3745,1.3758,1.379,1.3808,1.3832,1.385,1.384,1.3894,1.3885,1.3903,1.3902,1.3913,1.3912,1.3957,1.3926,1.3925,1.3925,1.3925,0,1.3532,1.3563,1.359,1.3613,1.3647,1.3665,1.3699,1.3716,1.3741,1.3767,1.3777,1.3801,1.3822,1.3849,1.3863,1.3899,1.3907,1.3916,1.3919,1.3914,1.3913,1.3925,1.3923,1.3927,1.3926,1.3926,1.3926,0,1.3558,1.3578,1.3618,1.3651,1.366,1.3684,1.3712,1.3735,1.3751,1.3783,1.3792,1.3817,1.385,1.3869,1.3911,1.392,1.3958,1.3961,1.3948,1.395,1.3966,1.3964,1.402,1.4027,1.3991,1.3992,1.3992,0,1.3582,1.3606,1.3641,1.3658,1.3675,1.3704,1.3724,1.3742,1.3762,1.3796,1.3814,1.3846,1.3873,1.3924,1.3946,1.3977,1.398,1.3998,1.3985,1.3979,1.3979,1.3977,1.3979,1.4,1.4,1.4,1.4,0,1.3621,1.3629,1.3657,1.3687,1.371,1.3736,1.3761,1.3775,1.3797,1.3819,1.3852,1.3872,1.3914,1.3946,1.3978,1.3996,1.4001,1.4004,1.401,1.4005,1.3996,1.4,1.3953,1.4003,1.4002,1.4002,1.4002,1.4002,1.3646,1.3667,1.3694,1.3724,1.3745,1.3768,1.379,1.3808,1.3836,1.387,1.3879,1.3913,1.3941,1.3985,1.4003,1.403,1.4027,1.4036,1.4038,1.4039,1.4039,1.3992,1.4036,1.4036,1.4036,1.4036,1.4036,0,1.3684,1.3702,1.373,1.3764,1.3788,1.379,1.3818,1.3838,1.3867,1.3892,1.3918,1.3955,1.3986,1.401,1.4041,1.4058,1.4061,1.4066,1.4064,1.4068,1.404,1.4031,1.4062,1.4062,1.4062,1.4062,1.4062,1.4062,1.3707,1.3742,1.3753,1.3798,1.3816,1.3849,1.3864,1.3885,1.3905,1.3946,1.3971,1.3986,1.4011,1.4044,1.4072,1.4078,1.4089,1.4093,1.4099,1.4073,1.407,1.4067,1.4059,1.4095,1.4095,1.4125,1.4125,1.4125]},{"header":{"parameterUnit":"m.s-1","parameterCategory":1,"la1":30.2991,"la2":30.254,"lo1":-89.0895,"lo2":-89.0444,"dy":0.0017,"dx":0.0017,"nx":28,"ny":28,"refTime":"2024-10-01T21:00:00:Z","depth":0,"parameterNumber":3,"parameterNumberName":"V-component_of_WINDS"},"data":[0,0,0,0,0,0,0,0,0,0,0,0,0,0,0,0,0,0,0,0,0,0,0,0,0,0,0,0,0,0,0,0,0,0,0,0,0,0,0,0,0,0,0,0,0,0,0,0,0,0,0,0,0,0,0,0,0,0,-0.1077,-0.1077,0,-0.1137,-0.1137,-0.1138,-0.1178,-0.1178,-0.1179,-0.1179,-0.1243,-0.1245,-0.1246,0,0,0,0,0,0,0,0,0,0,0,0,0,-0.1,-0.1001,-0.1077,-0.1077,-0.1078,-0.1137,-0.1137,-0.1138,-0.1178,-0.1179,-0.1179,-0.1179,-0.1243,-0.1244,-0.1246,0,0,0,0,0,0,0,0,0,0,0,0,0,-0.1044,-0.1001,-0.1076,-0.1105,-0.1108,-0.1136,-0.1137,-0.1138,-0.1178,-0.1179,-0.1179,-0.1179,-0.1242,-0.1244,-0.1246,-0.1252,0,0,-0.1253,-0.1254,0,0,0,0,0,0,0,0,-0.1041,-0.1047,-0.11,-0.1103,-0.1107,-0.115,-0.1134,-0.1177,-0.1178,-0.1152,-0.1179,-0.1179,-0.1212,-0.1217,-0.1227,-0.1255,-0.1257,-0.1253,-0.1255,-0.1255,-0.1256,0,0,0,0,0,0,0,-0.1038,-0.1044,-0.11,-0.1101,-0.1105,-0.1116,-0.1123,-0.1142,-0.1179,-0.1154,-0.1157,-0.1163,-0.1214,-0.1225,-0.1229,-0.1258,-0.1253,-0.1255,-0.1256,-0.1257,-0.1295,-0.1295,0,0,0,0,0,0,-0.103,-0.1041,-0.1099,-0.1102,-0.1074,-0.1117,-0.1124,-0.1136,-0.1179,-0.1186,-0.1163,-0.1165,-0.1221,-0.1226,-0.1231,-0.1241,-0.1255,-0.1257,-0.1259,-0.1295,-0.1295,-0.1295,0,0,0,0,0,0,-0.1028,-0.1035,-0.1096,-0.1073,-0.1081,-0.1118,-0.113,-0.1137,-0.1148,-0.1186,-0.1193,-0.1167,-0.1222,-0.1228,-0.1247,-0.1244,-0.1258,-0.126,-0.1296,-0.1295,-0.1295,-0.126,0,0,0,0,0,0,-0.1026,-0.1034,-0.1035,-0.1072,-0.1082,-0.1109,-0.113,-0.1138,-0.1151,-0.1155,-0.1192,-0.1198,-0.1222,-0.1243,-0.1249,-0.1247,-0.1262,-0.1296,-0.1295,-0.1295,-0.1262,-0.1259,-0.1256,0,0,0,0,0,-0.1023,-0.1024,-0.1035,-0.1042,-0.1085,-0.1109,-0.1115,-0.1142,-0.1151,-0.1153,-0.1178,-0.1197,-0.1243,-0.1245,-0.1251,-0.125,-0.1296,-0.1296,-0.1295,-0.1263,-0.126,-0.1256,0,0,0,0,0,0,-0.0986,-0.1029,-0.1042,-0.1055,-0.1078,-0.1115,-0.1119,-0.1137,-0.1158,-0.1161,-0.1195,-0.1203,-0.1217,-0.1236,-0.1236,-0.1259,-0.1272,-0.1273,-0.1246,-0.1243,-0.124,-0.1235,-0.1264,0,0,0,0,0,-0.0979,-0.0994,-0.1031,-0.1039,-0.105,-0.1082,-0.1094,-0.1113,-0.1138,-0.1148,-0.1174,-0.1199,-0.122,-0.1232,-0.1253,-0.1265,-0.1274,-0.1268,-0.1265,-0.1263,-0.1263,-0.1272,-0.127,-0.1292,-0.1292,-0.1292,0,0,-0.0966,-0.0991,-0.0998,-0.1032,-0.1052,-0.1068,-0.109,-0.1106,-0.1118,-0.1151,-0.117,-0.119,-0.122,-0.1235,-0.1243,-0.1251,-0.1259,-0.1262,-0.1259,-0.1261,-0.1271,-0.1269,-0.1267,-0.1292,-0.1292,-0.1292,0,0,-0.0949,-0.0969,-0.0978,-0.0998,-0.1027,-0.1049,-0.1051,-0.1087,-0.1101,-0.112,-0.1146,-0.1161,-0.1195,-0.1216,-0.1231,-0.1223,-0.1242,-0.1229,-0.1214,-0.1222,-0.1221,-0.1219,-0.1217,-0.1216,-0.1229,-0.1229,-0.1229,0,-0.0928,-0.0952,-0.098,-0.0994,-0.1009,-0.1039,-0.1049,-0.1067,-0.1103,-0.1113,-0.1121,-0.1165,-0.1187,-0.1208,-0.1206,-0.1217,-0.1222,-0.1225,-0.1218,-0.1217,-0.1216,-0.1215,-0.1214,-0.1227,-0.1228,-0.1228,-0.1228,0,-0.0926,-0.0942,-0.0945,-0.0978,-0.0993,-0.1005,-0.1037,-0.1049,-0.1067,-0.1088,-0.1108,-0.1136,-0.1163,-0.117,-0.1188,-0.1194,-0.1198,-0.1212,-0.1226,-0.1212,-0.1211,-0.1211,-0.1225,-0.1226,-0.1226,-0.1226,0,0,-0.0887,-0.0935,-0.0936,-0.0952,-0.0988,-0.1001,-0.1015,-0.1041,-0.1051,-0.1075,-0.1088,-0.1117,-0.113,-0.1147,-0.1168,-0.1175,-0.1168,-0.1188,-0.119,-0.1184,-0.1178,-0.1167,-0.1166,-0.1181,-0.1181,-0.1181,-0.1175,0,-0.0875,-0.0901,-0.0927,-0.0944,-0.096,-0.0989,-0.1002,-0.1025,-0.1046,-0.1064,-0.1087,-0.1107,-0.1123,-0.1133,-0.1142,-0.1167,-0.1167,-0.1168,-0.1195,-0.1195,-0.1186,-0.1165,-0.1154,-0.1147,-0.1175,-0.1175,-0.1175,0,-0.0865,-0.0887,-0.0905,-0.094,-0.0948,-0.0958,-0.0985,-0.1001,-0.1029,-0.1044,-0.1063,-0.1085,-0.1103,-0.1115,-0.114,-0.114,-0.1153,-0.1167,-0.1168,-0.1171,-0.1184,-0.1169,-0.1146,-0.1145,-0.1175,-0.1175,-0.1175,0,-0.0836,-0.087,-0.0885,-0.0897,-0.0938,-0.0945,-0.0963,-0.0991,-0.1006,-0.1029,-0.1039,-0.1065,-0.1079,-0.1099,-0.1128,-0.1135,-0.1151,-0.1166,-0.1165,-0.1164,-0.1167,-0.1166,-0.1146,-0.1174,-0.1174,-0.1174,-0.1174,0,-0.082,-0.083,-0.0872,-0.0881,-0.0894,-0.0925,-0.0937,-0.0957,-0.0983,-0.0998,-0.1025,-0.1039,-0.1076,-0.1095,-0.1118,-0.1136,-0.1142,-0.1155,-0.1161,-0.1153,-0.1151,-0.1162,-0.1163,-0.1174,-0.1174,-0.1174,-0.1174,0,-0.0789,-0.0817,-0.0836,-0.0873,-0.0883,-0.0891,-0.0923,-0.0934,-0.0957,-0.0975,-0.0982,-0.1017,-0.1041,-0.1072,-0.1105,-0.1121,-0.1136,-0.1145,-0.1126,-0.113,-0.1127,-0.1127,-0.1113,-0.1113,-0.1141,-0.114,-0.114,0,-0.0777,-0.0786,-0.0824,-0.0835,-0.0852,-0.087,-0.0885,-0.0916,-0.0931,-0.0964,-0.0971,-0.0997,-0.1018,-0.1055,-0.1084,-0.111,-0.1121,-0.1114,-0.1125,-0.1116,-0.1121,-0.112,-0.1122,-0.1111,-0.1111,-0.111,-0.111,0,-0.0754,-0.0768,-0.0787,-0.0812,-0.0829,-0.085,-0.0872,-0.0881,-0.0917,-0.0932,-0.0956,-0.0973,-0.1007,-0.1032,-0.1062,-0.1082,-0.1102,-0.1106,-0.1108,-0.1099,-0.1088,-0.1095,-0.1119,-0.1107,-0.1107,-0.1107,-0.1107,-0.1108,-0.0733,-0.0742,-0.077,-0.0791,-0.0811,-0.0832,-0.0844,-0.0868,-0.0888,-0.0918,-0.0936,-0.0959,-0.0989,-0.1031,-0.105,-0.1069,-0.1077,-0.1079,-0.1079,-0.1079,-0.1077,-0.1084,-0.1075,-0.1075,-0.1075,-0.1075,-0.1075,0,-0.0711,-0.0731,-0.075,-0.078,-0.0798,-0.0815,-0.0841,-0.0854,-0.0874,-0.09,-0.092,-0.0948,-0.0973,-0.1005,-0.1033,-0.1042,-0.1052,-0.1048,-0.1048,-0.1053,-0.1068,-0.1064,-0.104,-0.104,-0.104,-0.104,-0.104,-0.104,-0.0702,-0.0718,-0.0735,-0.0762,-0.0783,-0.0805,-0.0818,-0.0838,-0.0859,-0.0888,-0.0909,-0.0929,-0.0958,-0.0987,-0.1012,-0.1021,-0.103,-0.1023,-0.1034,-0.1048,-0.1051,-0.1054,-0.1051,-0.1024,-0.1024,-0.1018,-0.1018,-0.1017]}]]